HST 1 20580U 90037B 26094.64776769 .00011124 00000+0 36493-3 0 9993 2 20580 28.4724 222.8665 0002193 61.0619 299.0197 15.29923140777298 POLAR 1 23802U 96013A 26094.09552595 .00000097 00000+0 00000+0 0 9999 2 23802 79.7819 227.9051 6395568 211.6054 85.4938 1.29845741143898 SWAS 1 25560U 98071A 26095.18283227 .00005745 00000+0 36771-3 0 9995 2 25560 69.8972 55.7081 0006215 333.5866 26.4980 15.09109546486259 CXO 1 25867U 99040B 26097.97432086 .00000867 00000+0 00000+0 0 9992 2 25867 55.0160 118.7491 7949849 310.6166 0.0374 0.37800700 17053 XMM-NEWTON 1 25989U 99066A 26095.54798203 .00000069 00000+0 00000+0 0 9996 2 25989 64.8516 283.9204 4698499 66.1986 0.0494 0.50130994 22640 TERRA 1 25994U 99068A 26095.21172110 .00000683 00000+0 14810-3 0 9991 2 25994 97.9537 147.6258 0003671 97.2018 284.2865 14.61045304398955 CLUSTER II-FM7 (SAMBA) 1 26410U 00041A 26090.03773165 .00002444 00000+0 00000+0 0 9999 2 26410 149.3581 38.1493 8953066 254.4502 0.4223 0.44796982 19968 CLUSTER II-FM8 (TANGO) 1 26464U 00045B 26094.11120259 .00003194 00000+0 00000+0 0 9998 2 26464 149.6837 39.5667 8962149 255.7736 0.6086 0.44400104 19975 ODIN 1 26702U 01007A 26095.09149750 .00055381 00000+0 64738-3 0 9994 2 26702 97.4010 132.2634 0004474 86.1520 274.0249 15.61412754377957 TIMED 1 26998U 01055B 26095.21126513 .00002666 00000+0 24655-3 0 9992 2 26998 74.0712 21.9362 0002571 241.1472 118.9454 14.95122308319916 CORIOLIS 1 27640U 03001A 26095.26544824 .00000185 00000+0 10754-3 0 9993 2 27640 98.7157 103.2574 0015059 65.2085 295.0656 14.19923741203870 SORCE 1 27651U 03004A 26095.07438172 .00004673 00000+0 34791-3 0 9998 2 27651 39.9916 318.6852 0018504 249.2440 110.6371 15.03314846260895 MOST 1 27843U 03031D 26094.99832572 .00000110 00000+0 70361-4 0 9999 2 27843 98.7077 103.7387 0010972 102.6225 257.6180 14.21306928180318 SCISAT 1 1 27858U 03036A 26095.02149605 .00000974 00000+0 12920-3 0 9997 2 27858 73.9300 316.7079 0006442 29.2306 330.9229 14.81363220220614 SWIFT 1 28485U 04047A 26095.13807531 .00059894 00000+0 64554-3 0 9993 2 28485 20.5547 25.5513 0002920 6.6606 353.3877 15.61915789175405 HINODE (SOLAR-B) 1 29479U 06041A 26095.28163369 .00001025 00000+0 18477-3 0 9999 2 29479 98.0602 112.4988 0018106 155.3029 204.9047 14.68520645 44175 SHIJIAN-6 02A (SJ-6 02A) 1 29505U 06046A 26095.24708130 .00010727 00000+0 55949-3 0 9995 2 29505 97.6444 135.7826 0004105 53.7482 306.4129 15.16130793 61219 SHIJIAN-6 02B (SJ-6 02B) 1 29506U 06046B 26095.29565341 .00003380 00000+0 26817-3 0 9995 2 29506 97.7101 124.8264 0012152 316.6682 43.3585 15.01140916 59807 FGRST (GLAST) 1 33053U 08029A 26095.01417099 .00005092 00000+0 19317-3 0 9995 2 33053 25.5841 352.4013 0008124 180.2323 179.8212 15.23548312984660 SDO 1 36395U 10005A 26093.00669913 -.00000054 00000+0 00000+0 0 9994 2 36395 34.4952 87.4755 0000578 22.7728 341.7255 1.00274249 59313 CRYOSAT 2 1 36508U 10013A 26095.23297432 .00000353 00000+0 86890-4 0 9996 2 36508 92.0255 259.6082 0002455 96.8353 263.3134 14.51898771847494 X-SAT 1 37389U 11015C 26095.21129179 .00000548 00000+0 25046-3 0 9998 2 37389 98.3465 75.7337 0013524 192.6315 167.4528 14.25185108777280 GCOM-W1 (SHIZUKU) 1 38337U 12025A 26095.26252702 .00000901 00000+0 20985-3 0 9998 2 38337 98.2090 36.9313 0001111 75.5215 87.0943 14.57139402738418 NUSTAR 1 38358U 12031A 26095.33335648 .00014372 00000+0 84876-3 0 9993 2 38358 6.0255 220.3380 0007033 104.8268 356.4167 15.08101640 1309 NEOSSAT 1 39089U 13009D 26095.10776692 .00000235 00000+0 95848-4 0 9999 2 39089 98.4161 276.8818 0012173 103.3183 256.9362 14.35800079686250 BRITE-AUSTRIA 1 39091U 13009F 26095.21230094 .00000315 00000+0 12161-3 0 9990 2 39091 98.3976 276.4587 0011393 97.6670 262.5811 14.36512301686570 IRIS 1 39197U 13033A 26095.16330248 .00002137 00000+0 25131-3 0 9995 2 39197 97.9379 294.6539 0024100 194.8199 165.2312 14.85732250689539 HISAKI (SPRINT-A) 1 39253U 13049A 26095.06914409 .00000166 00000+0 13645-3 0 9998 2 39253 29.7188 231.7453 0136416 144.0747 216.9084 13.55534829621499 CASSIOPE 1 39265U 13055A 26095.21812335 .00034455 -30972-6 40812-3 0 9993 2 39265 80.9163 155.0020 0306721 307.4206 49.9463 15.20788980656569 STSAT-3 1 39422U 13066G 26095.25679854 .00008284 00000+0 63017-3 0 9995 2 39422 97.6169 66.3856 0008823 279.3874 80.6353 15.02343009673250 SWARM B 1 39451U 13067A 26095.19309672 .00005454 00000+0 19783-3 0 9996 2 39451 87.7501 4.4662 0002872 77.6128 282.5443 15.28121515672097 SWARM A 1 39452U 13067B 26095.20905325 .00014660 00000+0 26611-3 0 9993 2 39452 87.3288 83.3209 0003534 95.7384 264.4279 15.49439235694948 SWARM C 1 39453U 13067C 26095.20898341 .00014709 00000+0 26701-3 0 9997 2 39453 87.3289 81.9020 0003535 96.0155 264.1508 15.49436830694902 BRITE-CA1 (TORONTO) 1 40020U 14033L 26095.13074568 .00002072 00000+0 31802-3 0 9990 2 40020 97.9618 225.4599 0079568 150.0256 210.5542 14.72554677631465 OCO 2 1 40059U 14035A 26095.29688411 .00000819 00000+0 19178-3 0 9998 2 40059 98.1967 37.7228 0001583 90.1220 270.0160 14.57128422625432 BRITE-PL2 (HEWELIUSZ) 1 40119U 14049B 26095.25797631 .00003922 00000+0 36970-3 0 9998 2 40119 97.9006 206.7466 0013771 358.1861 1.9307 14.94328731630551 MMS 1 1 40482U 15011A 26095.33335648 -.00001288 00000+0 00000+0 0 9991 2 40482 71.1408 349.8048 8383489 165.8513 67.0423 0.28341977 1306 MMS 2 1 40483U 15011B 26095.33335648 -.00001288 00000+0 00000+0 0 9992 2 40483 71.1410 349.8070 8384236 165.8573 67.0272 0.28341994 1303 MMS 3 1 40484U 15011C 26095.33335648 -.00001288 00000+0 00000+0 0 9993 2 40484 71.1436 349.8116 8383489 165.8516 67.0319 0.28341950 1303 MMS 4 1 40485U 15011D 26095.33335648 -.00001288 00000+0 00000+0 0 9994 2 40485 71.1413 349.8068 8383046 165.8603 67.0135 0.28340799 1307 ASTROSAT 1 40930U 15052A 26094.42370633 .00002628 00000+0 23869-3 0 9996 2 40930 5.9978 326.2599 0007504 58.6972 301.3890 14.82373506568861 DAMPE 1 41173U 15078A 26095.27852196 .00003712 00000+0 12792-3 0 9995 2 41173 97.4579 100.3919 0011552 343.3224 16.7635 15.30604076573394 PISAT 1 41784U 16059B 26094.98474149 .00001610 00000+0 28165-3 0 9994 2 41784 97.8193 98.5891 0030564 79.9645 280.5007 14.68845502508997 HXMT (HUIYAN) 1 42758U 17034A 26095.30129144 .00009040 00000+0 44454-3 0 9993 2 42758 43.0142 228.6834 0030810 41.1588 319.1577 15.17831714486586 FLYING LAPTOP 1 42831U 17042G 26095.31726714 .00003341 00000+0 26723-3 0 9998 2 42831 97.4366 253.8228 0019706 12.7860 347.3860 15.00706187475521 ZHANGHENG 1-01 (CSES-1) 1 43194U 18015C 26095.30345759 .00011804 00000+0 53316-3 0 9998 2 43194 97.6802 259.5362 0018743 145.7407 214.5041 15.20972006453560 SALSAT 1 46495U 20068K 26095.25293326 .00010667 00000+0 38421-3 0 9998 2 46495 97.8868 93.9405 0009584 187.7921 172.3170 15.28731219304217 IXPE 1 49954U 21121A 26095.25002315 .00016091 00000+0 91455-3 0 9991 2 49954 0.2279 148.7605 0007569 56.3230 135.2764 15.09583297 5732